SCP
0 0 0 0 0 0 0 0 0 0 0 0 0 0 0 0 0 0 0 0 0 0 0 0 0 0 0 0 0 0 0 0 0 0 0 0 0 0 0 0 0 0 0
0 0 0 0 0 0 0 0 0 0 0 0 0 0 0 0 0 0 0 0 0 0 0 0 0 0 0 0 0 0 0 0 0 0 0 0 0 0 0 0 0 0 0
0 0 0 0 0 0 0 0 0 0 0 0 0 0 0 0 0 0 0 0 0 0 0 0 0 0 0 0 0 0 0 0 0 0 0 0 0 0 0 0 0 0 0
0 0 0 0 0 0 0 0 0 0 0 0 0 0 0 0 0 0 0 0 0 0 0 0 0 0 0 0 0 0 0 0 0 0 0 0 0 0 0 0 0 0 0
0 0 0 0 0 0 0 0 0 0 0 0 0 0 0 0 0 0 0 0 0 0 0 0 0 0 0 0 0 0 0 0 0 0 0 0 0 0 0 0 0 0 0
0 0 0 0 0 0 0 0 0 0 0 0 0 0 0 0 0 0 0 0 0 0 0 0 0 0 0 0 0 0 0 0 0 0 0 0 0 0 0 0 0 0 0
0 0 0 0 0 0 0 0 0 0 0 0 0 0 0 0 0 0 0 0 0 0 0 0 0 0 0 0 0 0 0 0 0 0 0 0 0 0 0 0 0 0 0
0 0 0 0 0 0 0 0 0 0 0 0 0 0 0 0 0 0 0 0 0 0 0 0 0 0 0 0 0 0 0 0 0 0 0 0 0 0 0 0 0 0 0
0 0 0 0 0 0 0 0 0 0 0 0 0 0 0 0 0 0 0 0 0 0 0 0 0 0 0 0 0 0 0 0 0 0 0 0 0 0 0 0 0 0 0
0 0 0 0 0 0 0 0 0 0 0 0 0 0 0 0 0 0 0 0 0 0 0 0 0 0 0 0 0 0 0 0 0 0 0 0 0 0 0 0 0 0 0
0 0 0 0 0 0 0 0 0 0 0 0 0 0 0 0 0 0 0 0 0 0 0 0 0 0 0 0 0 0 0 0 0 0 0 0 0 0 0 0 0 0 0
0 0 0 0 0 0 0 0 0 0 0 0 0 0 0 0 0 0 0 0 0 0 0 0 0 0 0 0 0 0 0 0 0 0 0 0 0 0 0 0 0 0 0
0 0 0 0 0 0 0 0 0 0 0 0 0 0 0 0 0 0 0 0 0 0 0 0 0 0 0 0 0 0 0 0 0 0 0 0 0 0 0 0 0 0 0
0 0 0 0 0 0 0 0 0 0 0 0 0 0 0 0 0 0 0 0 0 0 0 0 0 0 0 0 0 0 0 0 0 0 0 0 0 0 0 0 0 0 0
0 0 0 0 0 0 0 0 0 0 0 0 0 0 0 0 0 0 0 0 0 0 0 0 0 0 0 0 0 0 0 0 0 0 0 0 0 0 0 0 0 0 0
0 0 0 0 0 0 0 0 0 0 0 0 0 0 0 0 0 0 0 0 0 0 0 0 0 0 0 0 0 0 0 0 0 0 0 0 0 0 0 0 0 0 0
0 0 0 0 0 0 0 0 0 0 0 0 0 0 0 0 0 0 0 0 0 0 0 0 0 0 0 0 0 0 0 0 0 0 0 0 0 0 0 0 0 0 0
0 0 0 0 0 0 0 0 0 0 0 0 0 0 0 0 0 0 0 0 0 0 0 0 0 0 0 0 0 0 0 0 0 0 0 0 0 0 0 0 0 0 0
0 0 0 0 0 0 0 0 0 0 0 0 0 0 0 0 0 0 0 0 0 0 0 0 0 0 0 0 0 0 0 0 0 0 0 0 0 0 0 0 0 0 0
0 0 0 0 0 0 0 0 0 0 0 0 0 0 0 0 0 0 0 0 0 0 0 0 0 0 0 0 0 0 0 0 0 0 0 0 0 0 0 0 0 0 0
0 0 0 0 0 0 0 0 0 0 0 0 0 0 0 0 0 0 0 0 0 0 0 0 0 0 0 0 0 0 0 0 0 0 0 0 0 0 0 0 0 0 0
0 0 0 0 0 0 0 0 0 0 0 0 0 0 0 0 0 0 0 0 0 0 0 0 0 0 0 0 0 0 0 0 0 0 0 0 0 0 0 0 0 0 0
0 0 0 0 0 0 0 0 0 0 0 0 0 0 0 0 0 0 0 0 0 0 0 0 0 0 0 0 0 0 0 0 0 0 0 0 0 0 0 0 0 0 0
0 0 0 0 0 0 0 0 0 0 0 0 0 0 0 0 0 0 0 0 0 0 0 0 0 0 0 0 0 0 0 0 0 0 0 0 0 0 0 0 0 0 0
0 0 0 0 0 0 0 0 0 0 0 0 0 0 0 0 0 0 0 0 0 0 0 0 0 0 0 0 0 0 0 0 0 0 0 0 0 0 0 0 0 0 0
0 0 0 0 0 0 0 0 0 0 0 0 0 0 0 0 0 0 0 0 0 0 0 0 0 0 0 0 0 0 0 0 0 0 0 0 0 0 0 0 0 0 0
Wind_Speed
1 1 1 0 0 0 0 0 0 1 1 1 1 2 2 2 2 2 2 4 4 4 5 5 6 7 7 7 7 7 7 7 7 7 6 6 6 6 6 6 6 6 7
2 1 1 1 0 0 0 1 1 1 1 1 1 1 2 2 2 2 2 2 4 4 4 5 6 6 6 7 7 7 7 8 8 7 7 6 7 7 7 7 6 6 7
2 2 1 1 1 1 1 1 0 1 1 1 0 1 1 1 2 2 2 1 1 2 3 3 4 5 6 7 7 7 7 8 8 7 7 7 7 7 7 7 7 7 7
2 2 1 1 1 1 1 1 1 1 1 1 0 0 0 1 1 1 1 1 1 1 1 2 2 3 4 5 6 7 8 8 8 8 9 8 8 8 8 8 8 8 8
2 2 1 1 1 1 1 1 2 1 1 1 1 0 0 0 1 1 1 1 1 1 1 1 2 4 5 5 6 6 6 7 8 8 9 9 9 8 8 8 8 8 8
2 2 1 1 1 1 1 1 2 1 1 1 1 1 1 1 0 0 1 1 1 1 1 1 2 3 5 6 6 7 7 7 8 8 9 9 9 8 8 9 9 9 9
1 2 2 2 2 2 1 2 2 2 1 1 1 1 2 1 1 0 0 0 1 1 1 2 2 2 2 5 6 7 8 8 8 8 9 9 9 9 9 9 9 9 9
1 2 2 2 2 2 2 2 2 2 1 1 2 2 1 2 2 1 0 1 2 1 1 2 2 2 2 2 4 7 8 8 9 9 9 8 8 8 9 10 10 10 10
1 1 2 2 2 2 2 2 2 3 2 1 1 2 2 2 1 1 1 1 1 1 2 2 2 2 3 2 3 5 7 8 9 9 8 7 8 8 8 9 10 10 10
1 1 2 2 2 2 2 2 2 2 3 1 0 1 1 2 2 1 1 1 1 1 2 2 2 2 2 2 3 4 6 6 7 7 7 7 7 7 8 8 9 9 10
1 0 2 2 2 2 2 2 2 2 2 2 1 1 1 0 1 2 2 2 2 2 2 2 2 2 2 2 2 4 5 4 5 6 6 6 6 7 7 8 9 9 9
1 1 1 2 2 2 2 2 2 3 2 2 2 1 2 2 2 2 2 1 2 2 2 2 1 2 2 2 3 5 5 5 5 5 5 6 6 6 7 8 9 9 10
1 1 1 1 1 2 2 2 2 2 2 2 2 1 1 1 1 2 1 1 1 2 2 2 2 1 2 2 3 5 5 5 5 5 5 6 6 6 7 8 8 9 9
2 2 1 1 1 2 2 2 2 2 2 2 2 2 1 1 1 1 2 2 1 2 2 3 2 2 2 2 3 4 4 5 5 5 5 5 6 6 7 7 8 7 7
1 1 2 2 1 2 2 2 2 2 2 2 1 1 1 1 1 1 1 2 2 2 3 3 2 2 2 2 3 3 4 5 6 5 5 5 6 6 7 7 6 6 7
0 2 2 2 2 2 2 2 2 2 2 1 1 1 1 1 1 1 1 1 2 2 2 2 2 3 3 3 4 3 4 6 5 6 6 5 6 6 6 7 7 7 7
1 2 2 2 2 2 2 2 2 2 2 1 1 1 1 1 1 1 1 1 2 2 3 3 2 2 3 3 4 3 3 3 3 5 6 5 5 5 5 5 6 6 6
1 1 2 2 2 2 2 2 2 2 2 2 1 1 1 1 1 1 1 2 2 2 3 3 2 2 3 3 3 4 3 3 3 5 5 5 5 4 4 5 5 5 6
1 1 1 2 2 2 2 2 2 2 2 2 2 2 3 2 2 2 2 2 2 2 2 3 3 2 2 2 3 3 3 3 4 4 5 5 5 5 5 5 5 5 6
1 1 1 1 1 2 2 1 1 1 1 1 2 2 3 3 3 3 2 3 2 2 2 2 3 2 2 2 1 2 3 3 4 3 4 4 4 5 5 6 6 6 6
1 1 1 1 1 1 1 2 1 1 1 1 1 1 2 3 3 3 2 2 2 2 2 2 2 2 2 2 2 1 3 4 3 2 3 3 3 3 3 5 6 6 6
1 2 2 1 1 0 1 1 1 1 1 1 1 2 2 2 2 3 4 4 4 3 3 3 2 3 4 3 2 2 2 2 3 1 2 3 2 3 3 3 4 5 5
2 2 1 1 0 1 0 1 1 1 1 1 2 2 2 2 2 2 3 3 3 4 5 4 4 4 4 3 3 3 3 3 4 3 1 3 2 3 3 3 5 5 5
1 1 0 0 1 1 1 1 1 1 1 2 2 2 2 3 2 2 2 2 2 3 3 3 4 5 4 4 4 3 3 3 4 3 2 2 3 3 3 3 4 4 4
1 0 0 0 1 2 2 1 1 0 1 2 2 2 3 3 3 1 1 2 3 3 2 2 3 4 4 4 3 1 1 2 3 3 1 2 2 3 3 3 3 3 4
0 1 1 1 1 2 3 2 1 1 1 2 2 2 3 3 3 1 2 2 3 4 3 3 3 3 3 2 2 2 2 2 2 3 1 2 2 2 2 2 2 3 3
Wind_Direction
194 212 250 241 138 132 165 159 175 187 191 197 198 190 190 201 205 212 236 244 240 227 225 229 225 223 219 218 217 215 213 214 214 211 213 220 225 229 228 229 227 224 224
192 195 218 237 217 191 196 176 185 190 198 194 191 189 201 201 211 215 227 256 255 232 224 226 227 230 227 227 221 221 220 220 221 219 219 223 225 230 230 231 232 231 230
188 186 192 214 225 198 171 139 132 134 153 161 181 208 202 213 214 219 226 237 262 243 224 223 228 228 229 223 220 220 223 224 224 224 226 229 228 230 231 231 233 234 234
183 181 189 219 225 180 156 155 148 134 126 128 183 254 240 212 224 216 210 219 233 264 270 252 250 245 248 242 236 232 227 227 227 228 230 231 232 233 232 233 234 237 237
186 180 184 205 176 155 154 163 127 136 143 153 185 111 325 258 249 215 203 225 237 263 281 285 277 267 262 258 254 248 238 233 235 234 234 235 233 232 232 231 232 235 237
187 175 175 175 150 139 130 128 129 118 136 154 144 69 0 337 22 198 235 240 244 252 266 273 271 273 270 266 263 256 250 244 241 239 238 237 233 231 232 233 233 235 237
176 172 183 164 152 148 155 147 133 117 77 83 99 45 360 17 34 344 261 249 273 269 275 268 261 261 274 273 269 263 258 255 251 245 242 239 234 231 232 233 235 237 238
210 191 180 170 154 142 132 133 132 127 93 88 120 109 24 348 343 323 317 257 275 285 282 274 267 262 265 268 272 269 267 265 259 254 251 247 242 239 236 234 236 238 238
230 205 182 167 158 157 166 168 155 147 151 92 108 144 151 209 291 320 288 288 302 301 289 287 272 264 260 264 269 271 273 274 266 259 253 247 246 244 241 241 240 239 238
266 194 164 162 163 161 166 176 162 161 153 163 129 104 154 166 164 278 302 292 294 289 290 292 287 283 274 271 275 281 282 277 273 267 262 253 248 245 244 246 247 247 245
342 154 155 159 159 162 165 156 151 152 156 167 166 155 146 126 156 176 262 303 316 289 280 273 274 288 278 268 271 286 289 283 279 274 271 262 254 250 245 245 250 253 251
319 314 161 166 170 170 169 160 158 154 161 166 170 171 170 175 187 181 218 266 288 290 291 275 267 281 278 275 281 300 295 288 286 281 274 266 259 254 253 253 250 251 252
276 259 203 183 177 180 170 154 150 155 170 165 168 183 181 194 177 169 182 226 268 295 298 275 260 282 288 286 289 308 303 299 291 284 273 268 268 269 266 262 257 253 253
247 239 202 182 175 163 153 142 137 151 148 149 156 157 164 184 167 169 172 178 255 292 288 280 288 275 294 300 304 315 306 308 301 292 286 275 269 268 267 262 259 256 255
257 190 153 145 138 135 133 135 127 137 135 140 148 139 148 171 146 165 174 180 187 250 271 276 278 279 300 307 314 313 303 304 303 294 287 281 277 272 268 259 255 255 255
103 123 127 134 134 129 130 128 130 141 135 140 154 149 164 178 169 167 183 194 196 208 249 270 269 292 304 306 321 314 298 306 308 304 293 283 279 275 274 265 261 258 257
137 140 141 140 141 140 139 137 145 148 146 154 176 173 193 183 193 213 195 198 207 199 232 271 267 281 290 302 320 319 305 302 308 309 302 294 291 287 279 271 264 262 261
142 143 134 130 140 141 143 153 168 166 172 195 210 196 217 211 215 224 206 214 218 211 217 259 280 286 285 294 307 311 313 309 302 300 296 294 294 293 283 276 273 268 264
137 116 121 147 163 159 156 167 171 181 194 210 216 214 223 216 232 235 221 228 235 228 214 231 268 280 284 301 319 315 312 308 305 297 288 289 288 287 281 273 273 270 265
152 141 144 163 174 168 158 153 157 178 195 227 232 226 228 224 229 232 234 236 236 241 226 233 258 276 282 293 293 306 318 318 309 305 297 287 281 280 278 277 277 272 265
152 145 122 91 87 114 133 135 145 158 180 241 265 252 243 244 242 231 241 237 229 236 237 244 257 278 290 292 288 290 299 309 300 296 302 299 296 288 285 278 274 271 264
55 74 87 101 78 46 109 140 148 162 181 231 278 291 284 261 272 264 264 246 225 219 227 231 242 256 272 270 274 275 287 310 305 307 301 298 301 294 295 284 280 273 263
63 61 54 79 62 311 273 164 137 149 194 238 260 279 291 304 304 290 291 284 259 244 222 215 235 248 251 254 256 267 265 270 276 293 282 285 290 296 302 301 290 280 272
76 63 15 18 4 328 320 235 177 149 237 264 261 256 263 287 292 289 295 308 296 281 252 230 235 249 253 254 237 241 258 274 280 275 235 267 291 298 306 304 304 299 295
71 41 1 1 346 315 306 258 191 186 264 287 281 267 252 265 285 291 270 293 305 304 303 278 259 266 270 264 243 219 252 271 292 290 227 249 280 296 293 290 303 311 305
128 6 356 332 314 309 308 283 230 195 265 287 296 287 265 258 277 260 227 245 277 290 312 326 324 314 300 290 254 223 233 249 276 280 243 243 270 291 295 290 307 318 316